Location: Béaulencourt
(50.0796°N, 2.8795°E)
Time: 00:48:25
(UTC+00:00)

Cosmos 2369 Rocket - Pass Details

Date: 20 January 2026
Orbit: 827 x 853 km, 71.0° (Epoch: 17 February)

Event Time Altitude Azimuth Distance (km) Brightness Sun altitude
Rises 06:25:32 0° 202° (SSW) 3,395 5.3 -11.3°
Reaches altitude 10° 06:27:58 10° 200° (SSW) 2,467 4.6 -10.9°
Maximum altitude 06:33:38 77° 116° (ESE) 879 2.5 -10.0°
Drops below altitude 10° 06:39:22 10° 31° (NNE) 2,492 4.8 -9.2°
Sets 06:41:50 0° 31° (NNE) 3,432 5.5 -8.8°
